Tracking 19794 objects as of 23-Jul-2019
HD Live streaming from Space Station
objects crossing your sky now

COSMOS 1375

Track COSMOS 1375 now!
10-day predictions
COSMOS 1375 is classified as:


NORAD ID: 13259
Int'l Code: 1982-055A
Perigee: 941.5 km
Apogee: 978.7 km
Inclination: 65.8 °
Period: 104.1 minutes
Semi major axis: 7331 km
RCS: 0.955 m2 (medium)
Launch date: June 6, 1982
Source: Commonwealth of Independent States (former USSR) (CIS)
Launch site: PLESETSK MISSILE AND SPACE COMPLEX (PKMTR)
aabbcc
Your satellite tracking list
Your tracking list is empty




NASA's NSSDC Master Catalog

Two Line Element Set (TLE):
1 13259U 82055A   19203.18729924 -.00000037  00000-0  41587-4 0  9997
2 13259  65.8307 248.3856 0025358 322.6159  37.3142 13.83084138865185
Source of the keplerian elements: AFSPC